Change the Weather History Date:

Thursday, November 10, 2011

  Actual Average Record
Temperature  
Mean Temperature 52 °F -  
Max Temperature 57 °F 70 °F 80 °F (1998)
Min Temperature 41 °F 50 °F 37 °F (1996)
Degree Days  
Heating Degree Days 14    
Growing Degree Days 2 (Base 50)    
Moisture  
Dew Point 43 °F    
Average Humidity 72    
Maximum Humidity 100    
Minimum Humidity 44    
Precipitation  
Precipitation 0.00 in - - ()
Sea Level Pressure  
Sea Level Pressure 30.09 in    
Wind  
Wind Speed 14 mph (North)    
Max Wind Speed 20 mph    
Max Gust Speed 26 mph    
Visibility 10 miles    
Events      
Averages and records for this station are not official NWS values.
T = Trace of Precipitation, MM = Missing Value Source: NWS Daily Summary

Daily Weather History Graph

Daily Weather History Graph

Search for Another Location

Airport or City:

Trip Planner

Search our weather history database for the weather conditions in past years. The results will help you decide how hot, cold, wet, or windy it might be!

Date:

Astronomy

Nov. 10, 2011 Rise Set
Actual Time 6:08 AM CST 4:52 PM CST
Civil Twilight 5:42 AM CST 5:17 PM CST
Nautical Twilight 5:14 AM CST 5:46 PM CST
Astronomical Twilight 4:45 AM CST 6:15 PM CST
Moon 4:44 PM CST (11/10) 5:57 AM CST (11/10)
Length of Visible Light 11h 34m
Length of Day
10h 44m
Full, 100% of the Moon is Illuminated
Nov 10
Full
Nov 10
Full
Nov 18
Last Quarter
Nov 25
New
Dec 2
First Quarter

Hourly Weather History & Observations

Time (CST) Temp. Windchill Dew Point Humidity Pressure Visibility Wind Dir Wind Speed Gust Speed Precip Events Conditions
12:31 AM 57.2 °F - 57.2 °F 100% 30.01 in 10.0 mi NNE 12.7 mph - N/A   Overcast
12:50 AM 57.2 °F - 57.2 °F 100% 30.01 in 10.0 mi North 13.8 mph - N/A   Overcast
12:55 AM 56.8 °F - 56.5 °F 99% 30.00 in 10.0 mi North 13.8 mph - 0.00 in   Overcast
1:55 AM 56.8 °F - 56.5 °F 99% 30.01 in 10.0 mi North 12.7 mph - N/A   Overcast
2:24 AM 57.2 °F - 55.4 °F 94% 30.02 in 10.0 mi North 19.6 mph 24.2 mph N/A   Overcast
2:44 AM 55.4 °F - 53.6 °F 94% 30.03 in 10.0 mi North 13.8 mph 25.3 mph N/A   Overcast
2:49 AM 55.4 °F - 53.6 °F 94% 30.03 in 10.0 mi North 18.4 mph 25.3 mph N/A   Overcast
2:55 AM 55.0 °F - 53.4 °F 94% 30.03 in 10.0 mi North 17.3 mph 24.2 mph N/A   Overcast
3:55 AM 51.8 °F - 48.2 °F 88% 30.04 in 10.0 mi North 19.6 mph 25.3 mph N/A   Scattered Clouds
4:55 AM 51.1 °F - 47.3 °F 87% 30.04 in 10.0 mi North 19.6 mph 26.5 mph N/A   Partly Cloudy
5:55 AM 49.1 °F - 45.5 °F 87% 30.06 in 10.0 mi North 19.6 mph 25.3 mph N/A   Clear
6:55 AM 49.1 °F - 44.1 °F 83% 30.10 in 10.0 mi NNW 16.1 mph - N/A   Clear
7:55 AM 50.0 °F - 43.5 °F 78% 30.10 in 10.0 mi North 18.4 mph 25.3 mph N/A   Mostly Cloudy
8:55 AM 51.3 °F - 42.6 °F 72% 30.14 in 10.0 mi NNW 13.8 mph - N/A   Mostly Cloudy
9:55 AM 51.6 °F - 41.5 °F 68% 30.12 in 10.0 mi North 17.3 mph 26.5 mph N/A   Scattered Clouds
10:55 AM 52.0 °F - 39.6 °F 63% 30.10 in 10.0 mi NNE 15.0 mph 24.2 mph N/A   Scattered Clouds
11:55 AM 54.1 °F - 38.3 °F 55% 30.11 in 10.0 mi NNW 16.1 mph 21.9 mph N/A   Scattered Clouds
12:55 PM 53.6 °F - 34.5 °F 48% 30.09 in 10.0 mi North 17.3 mph 24.2 mph N/A   Overcast
1:55 PM 54.5 °F - 34.9 °F 48% 30.09 in 10.0 mi North 19.6 mph 24.2 mph N/A   Scattered Clouds
2:55 PM 56.1 °F - 34.2 °F 44% 30.07 in 10.0 mi North 19.6 mph - N/A   Partly Cloudy
3:55 PM 54.7 °F - 35.1 °F 48% 30.10 in 10.0 mi North 15.0 mph - N/A   Mostly Cloudy
4:55 PM 53.1 °F - 36.5 °F 53% 30.10 in 10.0 mi North 6.9 mph - N/A   Mostly Cloudy
5:55 PM 50.2 °F - 39.0 °F 66% 30.12 in 10.0 mi NNW 3.5 mph - N/A   Clear
6:55 PM 46.9 °F - 37.4 °F 69% 30.14 in 10.0 mi NNW 8.1 mph - N/A   Clear
7:55 PM 48.9 °F - 33.6 °F 56% 30.16 in 10.0 mi NW 5.8 mph - N/A   Clear
8:55 PM 47.8 °F - 31.3 °F 53% 30.19 in 10.0 mi NW 4.6 mph - N/A   Clear
9:55 PM 47.1 °F - 30.0 °F 51% 30.19 in 10.0 mi North 13.8 mph - N/A   Clear
10:55 PM 46.6 °F - 28.6 °F 50% 30.20 in 10.0 mi NNW 9.2 mph - N/A   Clear
11:55 PM 41.7 °F 37.3 °F 28.8 °F 60% 30.20 in 10.0 mi North 6.9 mph - N/A   Clear